MST,Max TemperatureF,Mean TemperatureF,Min TemperatureF,Max Dew PointF,MeanDew PointF,Min DewpointF,Max Humidity, Mean Humidity, Min Humidity, Max Sea Level PressureIn, Mean Sea Level PressureIn, Min Sea Level PressureIn, Max VisibilityMiles, Mean VisibilityMiles, Min VisibilityMiles, Max Wind SpeedMPH, Mean Wind SpeedMPH, Max Gust SpeedMPH,PrecipitationIn, CloudCover, Events, WindDirDegrees
2013-11-1,55,42,29,34,27,21,85,56,27,30.14,30.06,29.87,,,,21,9,29,0.00,,,290
2013-11-2,53,37,20,32,27,18,96,69,41,30.10,29.87,29.57,,,,16,5,20,0.00,,,116
2013-11-3,50,39,27,35,25,19,92,62,31,29.88,29.68,29.56,,,,30,15,39,0.00,,,289
2013-11-4,37,24,11,20,15,8,91,66,40,30.22,30.09,29.94,,,,24,11,30,0.00,,,298
2013-11-5,41,24,7,24,11,4,92,61,30,30.24,30.17,30.10,,,,14,3,20,0.00,,,261
2013-11-6,43,28,12,25,18,8,84,65,45,30.38,30.24,30.10,,,,16,6,20,0.00,,,288
2013-11-7,50,32,14,35,22,13,92,62,31,30.39,30.13,29.64,,,,17,6,22,0.01,,,167
2013-11-8,52,41,30,40,32,27,92,67,41,30.03,29.79,29.61,,,,31,14,39,0.10,,,290
2013-11-9,44,33,22,31,25,19,96,73,49,30.32,30.24,30.06,,,,18,5,24,0.00,,,252
2013-11-10,36,27,17,27,23,13,92,73,53,30.52,30.31,30.16,,,,18,8,23,0.19,,,34
2013-11-11,26,16,6,18,12,4,96,82,68,30.70,30.65,30.55,,,,8,4,10,0.02,,,118
2013-11-12,52,29,5,36,26,3,92,73,54,30.62,30.35,30.13,,,,15,4,20,0.00,,,225
2013-11-13,50,39,27,38,32,29,92,62,31,30.14,30.07,29.99,,,,30,15,39,0.00,,,279
2013-11-14,51,40,29,29,28,25,85,62,38,30.03,29.90,29.70,,,,20,7,22,0.00,,,284
2013-11-15,50,36,21,30,24,20,88,60,32,29.69,29.51,29.35,,,,22,6,29,0.00,,,280
2013-11-16,44,35,25,35,30,23,92,77,62,29.49,29.34,29.27,,,,17,5,22,0.05,,,262
2013-11-17,37,27,17,30,20,13,100,77,54,30.02,29.85,29.51,,,,20,6,24,0.00,,,288
2013-11-18,53,36,18,27,22,17,84,56,28,29.99,29.91,29.75,,,,15,4,18,0.00,,,221
2013-11-19,63,40,17,30,23,10,85,55,25,29.81,29.62,29.47,,,,21,8,25,0.00,,,318
2013-11-20,17,3,-12,10,3,-11,88,78,67,30.66,30.27,29.83,,,,20,11,25,0.00,,,333
2013-11-21,21,0,-21,6,-5,-26,83,68,52,30.76,30.66,30.55,,,,21,8,24,0.00,,,267
2013-11-22,22,9,-4,10,2,-9,87,69,51,30.84,30.72,30.54,,,,13,6,15,0.00,,,66
2013-11-23,35,14,-7,15,4,-11,91,66,41,30.81,30.56,30.17,,,,20,4,23,0.00,,,169
2013-11-24,44,31,17,26,19,11,84,65,45,30.26,30.11,30.02,,,,15,7,22,0.00,,,282
2013-11-25,37,26,15,21,18,13,92,68,44,30.50,30.40,30.26,,,,17,6,23,0.00,,,294
2013-11-26,36,21,6,21,15,2,92,70,47,30.56,30.37,30.07,,,,15,5,18,0.00,,,126
2013-11-27,42,28,13,25,21,10,92,72,51,30.31,30.18,30.01,,,,16,7,21,0.00,,,296
2013-11-28,36,23,9,26,16,6,96,80,64,30.34,30.22,30.06,,,,15,5,18,0.00,,,104
2013-11-29,53,34,15,27,23,11,88,62,35,30.11,30.06,29.99,,,,17,7,22,0.00,,,284
2013-11-30,45,36,26,32,29,25,92,77,62,30.19,30.13,30.04,1,1,1,9,2,11,0.00,,,278